This is the latest recevied weather packets stored in our database for station/object DF5HRN-13. If no packets are shown the sender has not sent any weather packets the latest 1 day(s).
| Time | Temp. | Humidity | Pressure | Rain* | Wind** | Luminosity | Snow |
|---|---|---|---|---|---|---|---|
| 1777987805 | 22.22° C | 40% | 1016 hPa | - | 1.79 m/s, 135° | - | - |
| 1777986905 | 22.22° C | 41% | 1016 hPa | - | 0 m/s | - | - |
| 1777986005 | 22.22° C | 43% | 1016 hPa | - | 0.45 m/s, 180° | - | - |
| 1777985105 | 22.22° C | 43% | 1016 hPa | - | 0 m/s | - | - |
| 1777984205 | 21.11° C | 43% | 1016 hPa | - | 0 m/s | - | - |
| 1777983305 | 22.22° C | 43% | 1017 hPa | - | 0 m/s | - | - |
| 1777982405 | 21.11° C | 43% | 1017 hPa | - | 2.24 m/s, 180° | - | - |
| 1777981505 | 20.56° C | 42% | 1017 hPa | - | 0.45 m/s, 180° | - | - |
| 1777980605 | 20° C | 42% | 1017 hPa | - | 0.89 m/s, 158° | - | - |
| 1777979705 | 20° C | 42% | 1017 hPa | - | 1.79 m/s, 135° | - | - |
| 1777978805 | 20.56° C | 42% | 1017 hPa | - | 1.34 m/s, 180° | - | - |
| 1777977905 | 21.67° C | 42% | 1017 hPa | - | 0.45 m/s, 225° | - | - |
| 1777977005 | 22.22° C | 42% | 1017 hPa | - | 0.45 m/s, 158° | - | - |
| 1777976105 | 22.22° C | 42% | 1018 hPa | - | 0.45 m/s, 158° | - | - |
| 1777975205 | 21.67° C | 42% | 1018 hPa | - | 1.79 m/s, 158° | - | - |
| 1777974305 | 22.22° C | 42% | 1018 hPa | - | 0.89 m/s, 158° | - | - |
| 1777973405 | 22.22° C | 41% | 1018 hPa | - | 1.34 m/s, 180° | - | - |
| 1777972505 | 21.11° C | 41% | 1018 hPa | - | 0.89 m/s, 203° | - | - |
| 1777971605 | 22.78° C | 41% | 1018 hPa | - | 0 m/s | - | - |
| 1777970705 | 22.22° C | 41% | 1018 hPa | - | 0 m/s | - | - |
| 1777969805 | 22.22° C | 41% | 1018 hPa | - | 0 m/s | - | - |
| 1777968905 | 21.11° C | 41% | 1018 hPa | - | 0 m/s | - | - |
| 1777968005 | 20.56° C | 41% | 1018 hPa | - | 0 m/s | - | - |
| 1777967105 | 20° C | 41% | 1018 hPa | - | 0 m/s | - | - |
| 1777966205 | 19.44° C | 41% | 1019 hPa | - | 0 m/s | - | - |
* Rain since midnight (hover to see other rain measurements)
** Current wind speed in m/s (hover to see current wind gust speed)